Location: Capelle
(50.3413°N, 1.9974°E)
Time: 20:33:07
(UTC+00:00)

Cosmos 968 Rocket - Pass Details

Date: 12 January 2026
Orbit: 737 x 764 km, 74.0° (Epoch: 16 February)

Event Time Altitude Azimuth Distance (km) Brightness Sun altitude
Rises 16:59:43 0° 340° (NNW) 3,220 6.7 -7.3°
Reaches altitude 10° 17:02:21 10° 351° (N) 2,286 5.8 -7.7°
Maximum altitude 17:06:58 31° 53° (NE) 1,287 4.2 -8.4°
Drops below altitude 10° 17:11:31 10° 116° (ESE) 2,258 5.6 -9.0°
Sets 17:14:06 0° 127° (SE) 3,173 6.4 -9.4°
